GOTHM99 EGVN-EGVN

Flight info

Callsign GOTHM99
Flight time N/A
Altitude 10000
Route NAXAT DAV/RC EGUP RTB LFA6 LFA5 LFA4 BZ
Aircraft C17/H-SDE1E3FGHIJ5KM1RTUWXYZ/LB1D1

Departure

Time 2026-05-04 10:39
Airport RAF Brize Norton (EGVN)

Arrival

Time N/A
Airport RAF Brize Norton (EGVN)
Time Latitude Longitude Altitude Speed Heading
2026-05-04 10:19 51.75756 -1.57035 260 ft 0 kts 109°
2026-05-04 10:26 51.75754 -1.57029 260 ft 3 kts 109°
2026-05-04 10:26 51.75740 -1.56966 260 ft 6 kts 110°
2026-05-04 10:27 51.75724 -1.56906 260 ft 6 kts 123°
2026-05-04 10:27 51.75670 -1.56857 260 ft 11 kts 163°
2026-05-04 10:27 51.75599 -1.56824 261 ft 11 kts 164°
2026-05-04 10:27 51.75530 -1.56793 260 ft 10 kts 161°
2026-05-04 10:28 51.75455 -1.56755 260 ft 15 kts 163°
2026-05-04 10:28 51.75341 -1.56700 259 ft 17 kts 163°
2026-05-04 10:28 51.75221 -1.56643 260 ft 20 kts 163°
2026-05-04 10:28 51.75093 -1.56636 260 ft 17 kts 204°
2026-05-04 10:29 51.75019 -1.56767 260 ft 15 kts 237°
2026-05-04 10:29 51.74967 -1.56903 260 ft 15 kts 237°
2026-05-04 10:29 51.74892 -1.57093 260 ft 25 kts 237°
2026-05-04 10:29 51.74831 -1.57252 260 ft 24 kts 239°
2026-05-04 10:30 51.74720 -1.57536 260 ft 21 kts 234°
2026-05-04 10:30 51.74644 -1.57730 260 ft 20 kts 237°
2026-05-04 10:30 51.74574 -1.57910 260 ft 18 kts 236°
2026-05-04 10:30 51.74538 -1.58115 260 ft 22 kts 281°
2026-05-04 10:31 51.74609 -1.58308 260 ft 19 kts 301°
2026-05-04 10:31 51.74652 -1.58500 260 ft 18 kts 258°
2026-05-04 10:32 51.74447 -1.59618 262 ft 15 kts 254°
2026-05-04 10:33 51.74429 -1.59818 260 ft 12 kts 285°
2026-05-04 10:33 51.74449 -1.59897 260 ft 11 kts 298°
2026-05-04 10:33 51.74483 -1.59997 260 ft 9 kts 298°
2026-05-04 10:33 51.74507 -1.60069 260 ft 6 kts 298°
2026-05-04 10:34 51.74524 -1.60120 263 ft 4 kts 298°
2026-05-04 10:34 51.74529 -1.60136 261 ft 0 kts 298°
2026-05-04 10:36 51.74543 -1.60179 262 ft 8 kts 298°
2026-05-04 10:36 51.74569 -1.60257 260 ft 10 kts 298°
2026-05-04 10:36 51.74591 -1.60322 261 ft 3 kts 298°
2026-05-04 10:37 51.74630 -1.60300 264 ft 0 kts 74°
2026-05-04 10:39 51.75061 -1.57936 404 ft 152 kts 74°
2026-05-04 10:39 51.75342 -1.56177 1065 ft 172 kts 75°
2026-05-04 10:39 51.75716 -1.54216 1831 ft 192 kts 71°
2026-05-04 10:40 51.76204 -1.52134 2762 ft 205 kts 60°
2026-05-04 10:40 51.77361 -1.50679 3502 ft 227 kts 19°
2026-05-04 10:40 51.78942 -1.50625 4362 ft 240 kts 347°
2026-05-04 10:40 51.80482 -1.51688 5366 ft 247 kts 328°
2026-05-04 10:41 51.81811 -1.53573 6226 ft 266 kts 307°
2026-05-04 10:41 51.82579 -1.56489 6593 ft 306 kts 277°
2026-05-04 10:41 51.82503 -1.60132 7011 ft 341 kts 263°
2026-05-04 10:41 51.82235 -1.64078 7849 ft 364 kts 263°
2026-05-04 10:42 51.81901 -1.68242 8801 ft 384 kts 260°
2026-05-04 10:42 51.81439 -1.72631 9478 ft 403 kts 260°
2026-05-04 10:42 51.81069 -1.77057 9903 ft 394 kts 261°
2026-05-04 10:42 51.80732 -1.81365 10013 ft 388 kts 261°
2026-05-04 10:43 51.80375 -1.85550 10117 ft 365 kts 260°
2026-05-04 10:44 51.87199 -2.01558 10113 ft 347 kts 39°
2026-05-04 10:45 51.88819 -1.98707 9995 ft 345 kts 58°
2026-05-04 10:45 51.89958 -1.95320 10008 ft 339 kts 66°
2026-05-04 10:45 51.90949 -1.91846 10107 ft 345 kts 65°
2026-05-04 10:45 51.92165 -1.88468 10178 ft 349 kts 53°
2026-05-04 10:46 51.93720 -1.85523 10152 ft 346 kts 50°
2026-05-04 10:46 51.95105 -1.82370 10261 ft 346 kts 62°
2026-05-04 10:46 51.96105 -1.78797 10294 ft 348 kts 65°
2026-05-04 10:46 51.97292 -1.75387 10307 ft 345 kts 63°
2026-05-04 10:47 51.98327 -1.71858 10307 ft 349 kts 66°
2026-05-04 10:47 51.99375 -1.68308 10261 ft 347 kts 63°
2026-05-04 10:47 52.00467 -1.64858 10297 ft 345 kts 62°
2026-05-04 10:47 52.01621 -1.61402 10317 ft 348 kts 62°
2026-05-04 10:49 52.09553 -1.36562 10338 ft 351 kts 63°
2026-05-04 10:49 52.10629 -1.33097 10275 ft 341 kts 64°
2026-05-04 10:50 52.11777 -1.29681 10314 ft 348 kts 58°
2026-05-04 10:51 52.19830 -1.05463 10238 ft 341 kts 63°
2026-05-04 10:52 52.20933 -1.02062 10239 ft 339 kts 63°
2026-05-04 10:52 52.22039 -0.98623 10234 ft 345 kts 63°
2026-05-04 10:52 52.23137 -0.95193 10234 ft 340 kts 65°
2026-05-04 10:54 52.30710 -0.71141 10255 ft 351 kts 62°
2026-05-04 10:54 52.31864 -0.67680 10245 ft 341 kts 62°
2026-05-04 10:56 52.39907 -0.44542 10152 ft 339 kts 57°
2026-05-04 10:56 52.41182 -0.41363 10143 ft 326 kts 57°
2026-05-04 10:56 52.42381 -0.38310 10083 ft 314 kts 58°
2026-05-04 10:57 52.43578 -0.35226 10014 ft 317 kts 58°
2026-05-04 10:57 52.44865 -0.32258 8994 ft 327 kts 51°
2026-05-04 10:57 52.46375 -0.29386 7589 ft 348 kts 47°
2026-05-04 10:57 52.47943 -0.26787 5846 ft 296 kts 42°
2026-05-04 10:58 52.49384 -0.24686 4119 ft 262 kts 40°
2026-05-04 10:58 52.50801 -0.22740 2839 ft 289 kts 39°
2026-05-04 10:58 52.52405 -0.20513 2049 ft 309 kts 39°
2026-05-04 10:58 52.53965 -0.18132 1288 ft 288 kts 47°
2026-05-04 10:59 52.55367 -0.15908 836 ft 276 kts 47°
2026-05-04 10:59 52.56665 -0.13663 670 ft 264 kts 54°
2026-05-04 10:59 52.57615 -0.11146 570 ft 257 kts 63°
2026-05-04 10:59 52.58390 -0.08524 430 ft 256 kts 66°
2026-05-04 11:00 52.59167 -0.05837 433 ft 276 kts 60°
2026-05-04 11:01 52.63143 0.15457 436 ft 290 kts 98°
2026-05-04 11:02 52.62851 0.18706 532 ft 291 kts 94°
2026-05-04 11:02 52.62922 0.21988 532 ft 285 kts 76°
2026-05-04 11:05 52.76452 0.59632 801 ft 291 kts 69°
2026-05-04 11:06 52.77133 0.62709 826 ft 281 kts 69°
2026-05-04 11:06 52.77823 0.65751 880 ft 287 kts 69°
2026-05-04 11:06 52.78478 0.68709 815 ft 272 kts 72°
2026-05-04 11:06 52.79030 0.71625 781 ft 257 kts 74°
2026-05-04 11:08 52.81662 0.88952 809 ft 211 kts 75°
2026-05-04 11:10 52.86427 1.00033 809 ft 157 kts 342°
2026-05-04 11:12 52.90381 0.92048 702 ft 141 kts 263°
2026-05-04 11:12 52.90197 0.90460 779 ft 140 kts 262°
2026-05-04 11:12 52.90009 0.88874 901 ft 136 kts 264°
2026-05-04 11:12 52.89764 0.87356 944 ft 138 kts 251°
2026-05-04 11:13 52.89369 0.85999 966 ft 127 kts 240°
2026-05-04 11:13 52.88861 0.84723 915 ft 132 kts 238°
2026-05-04 11:13 52.88350 0.83477 913 ft 134 kts 237°
2026-05-04 11:13 52.87781 0.82119 948 ft 153 kts 237°
2026-05-04 11:14 52.86091 0.78166 962 ft 137 kts 236°
2026-05-04 11:16 52.81394 0.76796 1311 ft 168 kts 74°
2026-05-04 11:16 52.81640 0.78631 1451 ft 159 kts 76°
2026-05-04 11:16 52.81876 0.80356 1395 ft 151 kts 75°
2026-05-04 11:17 52.82187 0.82216 1449 ft 179 kts 73°
2026-05-04 11:17 52.82816 0.83865 1456 ft 171 kts 36°
2026-05-04 11:19 52.85719 0.77989 1034 ft 140 kts 247°
2026-05-04 11:19 52.85519 0.76432 899 ft 140 kts 270°
2026-05-04 11:19 52.85418 0.74716 889 ft 171 kts 252°
2026-05-04 11:19 52.84422 0.73336 915 ft 226 kts 189°
2026-05-04 11:20 52.82868 0.74384 818 ft 279 kts 120°